This is the latest recevied weather packets stored in our database for station/object WX2NJ. If no packets are shown the sender has not sent any weather packets the latest 10 day(s).
| Time | Temp. | Humidity | Pressure | Rain* | Wind** | Luminosity | Snow |
|---|---|---|---|---|---|---|---|
| 1777845291 | 15.56° C | 27% | 1015.3 hPa | 0 mm | - | 70 W/m² | - |
| 1777844989 | 16.11° C | 26% | 1015.1 hPa | 0 mm | - | 103 W/m² | - |
| 1777844687 | 16.11° C | 27% | 1015.1 hPa | 0 mm | - | 110 W/m² | - |
| 1777844384 | 16.67° C | 26% | 1015.2 hPa | 0 mm | - | 152 W/m² | - |
| 1777844082 | 16.67° C | 25% | 1014.9 hPa | 0 mm | - | 257 W/m² | - |
| 1777843778 | 16.67° C | 25% | 1015.2 hPa | 0 mm | - | 223 W/m² | - |
| 1777843475 | 16.67° C | 25% | 1015 hPa | 0 mm | - | 165 W/m² | - |
| 1777843173 | 16.67° C | 26% | 1015 hPa | 0 mm | - | 209 W/m² | - |
| 1777842870 | 16.11° C | 27% | 1014.9 hPa | 0 mm | - | 82 W/m² | - |
| 1777842564 | 16.67° C | 27% | 1015 hPa | 0 mm | - | 92 W/m² | - |
| 1777842262 | 16.11° C | 27% | 1015.1 hPa | 0 mm | - | 154 W/m² | - |
| 1777841957 | 16.67° C | 25% | 1015.1 hPa | 0 mm | - | 319 W/m² | - |
| 1777841654 | 16.67° C | 26% | 1015 hPa | 0 mm | - | 399 W/m² | - |
| 1777841350 | 16.67° C | 25% | 1014.8 hPa | 0 mm | - | 412 W/m² | - |
| 1777841048 | 16.67° C | 27% | 1014.9 hPa | 0 mm | - | 367 W/m² | - |
| 1777840745 | 16.11° C | 26% | 1014.8 hPa | 0 mm | - | 409 W/m² | - |
| 1777840442 | 16.67° C | 27% | 1014.9 hPa | 0 mm | - | 439 W/m² | - |
| 1777840139 | 16.67° C | 25% | 1014.9 hPa | 0 mm | - | 494 W/m² | - |
| 1777839837 | 16.67° C | 27% | 1014.9 hPa | 0 mm | - | 390 W/m² | - |
| 1777839535 | 16.67° C | 26% | 1014.9 hPa | 0 mm | - | 537 W/m² | - |
| 1777839232 | 16.67° C | 27% | 1014.9 hPa | 0 mm | - | 547 W/m² | - |
| 1777838929 | 16.67° C | 25% | 1015 hPa | 0 mm | - | 526 W/m² | - |
| 1777838625 | 16.11° C | 27% | 1015.1 hPa | 0 mm | - | 592 W/m² | - |
| 1777838322 | 16.67° C | 26% | 1015.3 hPa | 0 mm | - | 506 W/m² | - |
| 1777838019 | 15.56° C | 28% | 1015.1 hPa | 0 mm | - | 555 W/m² | - |
* Rain latest hour (hover to see other rain measurements)
** Current wind speed in m/s (hover to see current wind gust speed)